Location: Moscow
(55.7500°N, 37.5830°E)
Time: 03:10:11
(UTC+03:00)

Kosmos-337 - Pass Details

Date: 06 July 2022
Orbit: 1467 x 1552 km, 74.0° (Epoch: 13 August)

Event Time Altitude Azimuth Distance (km) Brightness Sun altitude
Rises 23:55:03 0° 327° (NNW) 4,736 ? -11.1°
Reaches altitude 10° 23:58:06 10° 331° (NNW) 3,751 ? -11.1°
Maximum altitude 00:07:15 63° 53° (NE) 1,703 ? -11.3°
Drops below altitude 10° 00:16:15 10° 134° (SE) 3,704 ? -11.4°
Enters shadow 00:18:31 - 137° (SE) 4,435 ? -11.5°
